STARLINK-35849, 66348

Orbit data source: Space-Track

STARLINK-35849, 66348 is a payload satellite owned by SpaceX/Seattle (US) in LEO that was launched on Thu, 06 Nov 2025 UTC via an FALCON 9 launch vehicle from the Air Force Western Test Range (AFWTR). Payload-class satellites include a variety of spacecraft equipped with specific instruments for various scientific and technological missions. These include communications satellites like Starlink; space stations such as the ISS; scientific satellites like the Hubble; Earth observation satellites from companies like Planet Labs, Umbra, and HawkEye 360; GPS; miniature CubeSats for education and research; and military/defense satellites.

Loading next visibility...
Identifier
66348, 2025-254A
Orbit
LEO
Country
Flag of USUS
Related business
Manufacturer
SpaceX/Seattle
Mission
Operational Commercial Communications
Bus & Motor
STARLINK V2MO, Unknown motor
Mass
575 kg wet, ~530 kg dry
Launch date (UTC)
2025-11-06 (7 months ago)
Launch vehicle
FALCON 9
Launch site
Air Force Western Test Range (AFWTR)
Object type
Payload
Rocket body
Debris
Shape & HBR
Box + 2 Pan, 17.7 m
Radar Cross Section
36.964 m², Large (>1 m²)

Expand to show TLE details & history
Last TLE update: 1 day ago

TLE from 1 day ago
0 STARLINK-35849
1 66348U 25254A   26170.59234442  .00014621  00000-0  50458-3 0  9993
2 66348  53.1598 119.3963 0001110  74.8953 285.2171 15.30214635 35735
Epoch: 2026-06-19T14:12Z
TLE epoch observation values (Epoch: 2026-06-19T14:12:58.557Z)
Latitude
-0°
Longitude
-1.6668°
Altitude
475.871 km
Speed
7.629 km/s
True Right ascension
07h 57m 35s
True Declination
0° 00' 00"
Sunlit
Object was in daylight at epoch
Visualization orbit readout
Latitude
Unknown
Longitude
Unknown
Altitude
Unknown
Speed
Unknown
Apparent Right ascension
Unknown
Apparent Declination
Unknown
Sunlit
N/A
Visualization observer readout
Local Sidereal Time
07:13:38
Azimuth
Unknown
Elevation
Unknown
Doppler factor
Unknown
Orbital elements
Apogee altitude
476.189 km
Perigee altitude
474.667 km
Semi-major axis
6,853.565 km
Eccentricity
0.00011
Inclination
53.1598°
RAAN
119.3963°
Arg. of periapsis
74.8953°
True anomaly
285.20483°
Mean anomaly
285.2171°
Eccentric anomaly
285.21096°
Mean motion
3.82533 °/min
Orbital period
94.11 mins
BSTAR
0.00050458
Loading maneuver chart data...
Computing Atmospheric mass density...
Loading historical data...
Loading historical data...
Loading historical data...
Loading historical data...
Loading historical data...
Loading historical data...
Loading historical data...

Documentation

Showing up to 5 results
|